Regional Weather Roundup
Issued by NWS Midland/Odessa, TX

Skip options and go directly to product.
Home | Oldest Version | Previous Version | Current Version | All | Text Only | Save Text | Print | Product List | Glossary On

Skip product version selection by date and time.   
374
ASUS44 KMAF 241702
RWRMAF
MIDLAND AREA WEATHER ROUNDUP
NATIONAL WEATHER SERVICE MIDLAND TX
1200 PM CDT FRI OCT 24 2014

...IN SOUTHWEST TEXAS AND SOUTHEAST NEW MEXICO...

CITY           SKY/WX    TMP DP  RH WIND       PRES   REMARKS
ALPINE         SUNNY     75  51  43 SW7       30.35S
ANDREWS        FAIR      79  58  47 SW9       30.21S
ARTESIA        NOT AVBL
BIG SPRING     SUNNY     74  63  69 S6        30.22S
CARLSBAD       SUNNY     70  59  68 SE6       30.21S
DRYDEN           N/A     73  64  73 SW5       30.19S
FORT STOCKTON  SUNNY     79  57  46 W7        30.21F
GUAD PASS      NOT AVBL
HOBBS          SUNNY     73  61  64 S5        30.24S
MARFA          SUNNY     70  54  56 S5        30.35S
MIDLAND AIRPK  SUNNY     79  59  50 S5        30.21S
MIDLAND INTL   SUNNY     80  57  45 SW12      30.20S
ODESSA         SUNNY     77  59  53 SW9       30.21S
PECOS          SUNNY     69  60  74 CALM      30.20F
PRESIDIO       FAIR      74  58  55 CALM      30.24S
SEMINOLE       SUNNY     76  60  57 SW9       30.23S
SNYDER         MOSUNNY   64  64  97 SW7       30.20F
WINK           MOSUNNY   68  32  26 CALM      30.20S
$$
...OTHER STATIONS IN TEXAS...

CITY           SKY/WX    TMP DP  RH WIND       PRES   REMARKS
ABILENE        SUNNY     79  61  53 S10       30.18S
AMARILLO       SUNNY     76  47  35 W6        30.18S
AUSTIN         MOSUNNY   77  59  53 S6        30.18F
BROWNSVILLE    SUNNY     83  64  52 NE7       30.14S
CORPUS CHRISTI MOSUNNY   80  64  58 N6        30.16S
DALLAS FTW     MOSUNNY   75  55  49 S10       30.16F
DEL RIO        SUNNY     75  64  68 VRB5      30.18S
EL PASO        SUNNY     69  52  54 CALM      30.27S
HOUSTON INT    SUNNY     71  52  50 CALM      30.17F
LUBBOCK        MOSUNNY   77  58  51 SW13      30.19S
SAN ANGELO     SUNNY     79  59  50 SW13      30.19S
SAN ANTONIO    SUNNY     79  59  50 CALM      30.19F
WACO           SUNNY     74  56  53 S9        30.19S
WICHITA FALLS  NOT AVBL
$$
...OTHER LOCATIONS IN NEW MEXICO...

CITY           SKY/WX    TMP DP  RH WIND       PRES   REMARKS
ALAMAGORDO     NOT AVBL
ALBUQUERQUE    SUNNY     64  33  31 N3        30.36S
CANNON AFB     SUNNY     70  43  36 W9        30.22S
CLOVIS         SUNNY     73  43  33 SW10      30.24S
HOLLOMAN AFB   SUNNY     69  51  52 S6        30.27S
ROSWELL        SUNNY     68  54  60 CALM      30.23R
RUIDOSO        SUNNY     64  39  39 N3        30.41S
SANTA FE       SUNNY     64  31  28 N14       30.37S
TRUTH OR CONSE SUNNY     67  47  48 CALM      30.31S
TUCUMCARI      SUNNY     71  39  31 SW5       30.19F
$$

USA.gov is the U.S. government's official web portal to all federal, state and local government web resources and services.